Vorticity
18 12 9 7 4 5 6 5 5 6 6 5 5 6 7 7 7 6 5 4 3 2 2 2 3 4 7 8 11 14 15 14 12 9 7 6 6 7 6 6 6 5 5 5 6 6 6 6 7 8 8 9 8 6 4 4 3 4 4 3 3 4 5 5 7 9 8 5 3 3 2 2 4 5 4 5 6 4 1 2 4 2 1 3 2
23 17 11 10 7 4 5 6 5 5 6 6 5 5 6 7 7 6 5 4 3 2 2 2 2 4 6 8 12 16 15 12 10 7 5 5 5 6 6 6 6 5 5 6 6 7 7 6 6 6 8 9 10 10 8 5 3 3 4 4 3 3 4 4 7 9 8 6 4 3 3 2 3 6 6 5 4 3 3 3 3 1 2 4 3
21 20 13 10 10 7 5 5 6 5 5 6 6 5 5 5 6 6 6 4 3 2 2 2 2 3 5 7 11 15 14 10 8 6 5 5 5 5 5 5 6 6 5 5 6 7 8 7 7 6 7 8 9 11 11 10 7 4 3 4 4 3 3 3 5 7 8 6 4 3 4 3 3 5 7 4 2 4 5 3 2 2 3 4 3
16 20 17 12 10 9 8 5 6 6 5 5 7 6 5 4 5 5 5 5 4 3 3 3 3 3 5 6 8 12 12 8 7 7 5 4 5 5 5 5 5 6 6 5 6 7 8 8 7 7 7 7 7 8 11 13 13 9 5 3 4 4 3 2 3 6 7 7 5 3 4 4 3 4 6 5 3 4 4 2 2 2 3 3 2
10 16 20 18 11 10 10 8 6 6 6 5 6 7 7 5 5 5 5 5 5 4 4 4 4 4 5 5 5 9 11 9 7 7 6 5 4 4 3 3 4 5 5 5 5 6 7 8 8 8 8 7 7 7 8 10 13 15 12 6 3 4 4 3 2 4 5 7 6 4 4 5 4 4 5 4 2 3 2 1 2 3 2 1 1
9 11 17 21 17 12 11 11 10 7 6 6 6 6 7 6 6 5 5 6 5 5 5 4 5 4 4 5 5 6 10 9 8 7 6 5 4 4 4 4 4 5 5 5 6 6 6 6 7 8 8 8 8 7 7 8 9 13 17 15 8 3 3 4 3 2 4 6 7 6 4 4 4 3 4 3 2 1 2 2 4 3 2 0 1
9 9 12 19 22 18 13 12 13 11 8 7 6 6 7 6 7 6 6 6 5 5 5 5 5 4 4 5 5 5 7 9 8 8 6 5 4 4 4 4 5 5 4 5 5 6 7 5 5 6 8 8 8 7 7 7 7 8 13 18 17 9 4 3 4 3 3 4 6 7 6 5 4 3 4 4 3 1 2 3 3 3 2 1 2
8 9 9 14 20 23 18 12 11 11 9 7 7 7 7 7 7 6 5 6 6 6 6 5 5 5 4 4 5 5 6 7 8 9 7 5 4 4 3 3 4 4 5 5 5 6 7 7 6 5 6 7 9 9 8 7 7 8 9 13 18 17 10 4 3 4 4 3 5 6 6 6 6 3 3 4 3 1 1 1 0 0 1 1 2
5 6 6 8 14 21 21 15 11 9 8 8 8 7 8 7 7 6 6 6 5 5 5 6 6 6 5 4 5 5 5 6 7 8 8 7 4 3 2 2 3 4 6 6 5 5 6 8 8 7 6 7 8 9 9 7 6 7 9 10 12 17 17 11 4 3 5 4 4 5 7 7 7 4 3 4 3 2 2 2 1 -0 -1 -0 1
3 4 4 5 9 16 20 20 15 11 9 9 8 8 8 7 7 7 6 6 5 5 5 6 6 7 7 5 5 5 5 6 7 6 7 7 6 4 3 2 2 3 5 6 6 6 5 7 10 10 9 8 7 8 10 9 7 6 8 10 8 11 17 17 10 4 4 5 4 4 5 7 8 6 4 3 3 2 3 3 3 2 1 1 0
3 2 2 4 7 9 15 21 20 16 13 10 9 9 8 8 8 7 6 5 5 5 5 6 7 7 8 7 6 5 5 6 7 7 7 7 7 6 4 2 2 1 2 4 6 7 5 5 8 10 11 10 9 9 9 10 9 6 6 9 9 9 12 16 15 9 5 4 5 5 4 6 8 7 5 4 3 2 3 3 3 3 2 2 1
3 1 1 2 5 5 10 17 20 19 16 13 11 9 8 9 9 7 7 6 6 5 5 6 7 7 8 8 7 6 6 6 6 7 8 8 8 8 6 4 2 0 1 2 5 8 7 5 5 7 9 10 10 10 10 11 11 8 6 6 8 9 10 12 15 13 9 6 5 5 5 5 6 7 7 7 5 4 3 2 2 1 1 2 3
1 1 1 1 2 3 6 10 14 18 19 16 14 11 10 11 10 10 10 7 5 5 5 5 6 7 8 9 8 7 6 6 6 6 8 8 9 10 9 7 3 -0 -0 1 3 6 8 7 6 6 7 9 9 9 10 11 12 11 8 6 7 8 9 11 13 13 12 10 8 5 5 5 5 6 8 8 6 5 3 1 2 2 1 3 3
1 -2 -1 1 1 3 6 7 9 12 15 17 19 18 15 13 11 11 10 8 7 7 6 6 5 6 8 9 9 8 7 7 6 6 8 8 9 10 10 10 7 2 -0 -0 1 4 8 8 6 5 5 6 7 8 9 9 12 13 10 7 6 5 7 10 12 12 12 11 10 7 5 6 5 4 6 8 6 5 4 2 2 2 2 2 3
4 -1 -3 0 1 3 5 6 6 6 7 12 17 19 19 16 13 11 10 11 11 9 7 6 5 5 7 7 8 8 8 7 7 7 8 9 10 10 10 11 10 5 0 -1 -2 0 5 8 8 6 5 4 4 6 7 7 9 11 11 10 7 5 6 7 9 12 13 12 11 8 6 6 6 4 5 7 6 6 4 3 3 4 4 4 4
8 5 2 1 1 3 5 6 5 4 4 6 9 13 17 18 17 14 11 10 12 11 9 8 6 6 6 6 7 8 7 7 7 7 8 10 11 12 11 11 12 9 3 -0 -1 -1 1 6 9 7 6 6 5 5 6 6 6 8 10 11 9 8 6 4 6 10 13 14 13 10 6 5 6 6 6 6 6 6 6 5 6 6 6 6 5
11 10 6 2 0 1 4 6 7 5 3 5 7 8 11 14 16 17 15 12 11 12 12 11 9 7 6 6 6 7 6 6 6 7 7 8 10 13 13 12 12 12 7 2 1 -1 -2 2 7 7 7 8 8 7 6 6 6 7 8 9 11 11 9 4 4 7 9 13 15 13 8 5 5 7 8 7 7 7 7 7 7 7 7 7 6
11 11 7 3 4 5 4 5 8 7 5 4 6 7 7 10 13 16 17 14 11 11 11 11 10 8 6 6 6 6 6 6 6 6 6 6 7 10 14 14 12 12 10 6 3 1 -2 -0 4 7 7 6 7 8 9 8 7 7 8 9 10 12 11 7 5 6 7 10 15 15 11 6 5 7 7 6 7 8 8 9 9 8 8 8 7
7 10 8 5 6 7 3 2 5 9 8 4 5 7 6 7 10 13 16 15 12 10 10 11 13 12 9 8 7 6 5 5 6 7 6 6 6 6 11 14 14 14 12 8 6 5 2 0 2 5 7 6 5 7 9 10 9 8 8 9 8 10 11 9 8 7 6 8 11 13 12 8 7 8 7 5 6 7 7 8 9 9 9 9 9
4 11 16 18 17 8 0 -1 0 6 11 7 4 6 5 5 7 11 14 15 13 11 10 10 13 14 12 10 9 8 7 5 5 7 6 6 6 6 8 12 14 15 13 9 7 6 4 3 2 3 5 5 5 6 7 10 11 9 8 7 6 9 10 8 8 8 7 7 8 10 11 9 7 6 5 6 7 8 8 7 8 9 8 8 10
10 10 13 26 31 11 -5 -3 -1 1 9 11 6 5 5 5 7 9 11 13 12 11 10 9 11 14 14 13 11 9 9 7 5 5 6 6 7 7 7 8 11 13 13 10 7 6 6 5 4 4 4 4 6 6 6 8 10 10 9 6 6 8 8 7 8 8 7 7 6 7 8 9 7 6 7 8 9 8 8 7 7 6 5 7 10
17 8 2 15 22 5 -6 5 8 3 6 10 7 6 6 5 6 7 8 11 11 11 10 8 8 10 13 14 14 11 9 8 6 5 5 5 6 7 8 8 8 10 11 11 8 7 7 6 5 4 4 3 5 7 7 8 9 9 8 7 6 6 6 6 7 8 7 7 6 6 7 6 6 7 8 9 10 9 8 7 7 6 6 7 10
13 9 7 9 11 5 4 12 12 5 6 8 6 7 8 6 6 6 6 8 9 10 10 9 7 7 9 12 16 15 11 9 7 6 5 5 5 6 7 8 8 8 9 10 8 7 6 6 5 5 5 4 5 7 8 7 7 7 6 6 6 7 7 8 7 7 7 7 6 6 7 6 6 7 8 9 10 9 7 7 7 7 8 11 13
10 5 3 1 1 5 8 9 9 7 7 7 6 7 7 6 6 7 6 6 7 8 10 10 8 7 8 10 13 15 14 13 11 8 6 6 6 6 7 7 7 7 7 8 8 8 8 8 6 5 5 6 6 7 8 8 7 7 5 3 5 7 7 7 7 7 7 7 7 8 7 6 7 7 6 7 8 8 7 8 8 8 9 11 13
9 -2 -2 1 5 7 7 7 10 10 8 8 8 7 7 6 6 6 5 6 6 6 8 11 11 10 9 8 9 11 12 12 12 12 10 8 8 8 8 8 8 8 8 7 7 7 8 9 9 7 7 7 7 7 8 7 7 6 5 3 5 6 7 7 7 8 7 6 7 9 8 7 8 8 7 7 7 7 7 7 7 8 10 12 13
3 -2 2 8 10 8 8 9 11 11 10 11 10 8 7 6 6 5 5 5 5 5 6 8 10 11 11 10 9 10 10 11 11 11 11 10 10 11 11 11 10 9 10 10 8 7 9 11 11 10 8 6 6 7 8 7 7 7 5 5 5 5 5 6 6 7 8 8 8 9 8 7 7 8 8 8 8 8 7 7 7 9 11 12 12
4 4 6 8 9 10 9 9 9 8 7 9 11 11 10 7 6 4 4 5 5 5 5 7 9 11 12 12 10 9 10 11 10 9 10 10 11 12 12 12 11 9 9 10 8 7 9 11 10 8 7 6 8 10 10 9 8 7 6 6 7 6 5 6 7 8 8 9 10 10 9 8 8 9 9 9 9 8 6 5 7 11 13 13 12
8 6 4 6 8 10 9 7 6 5 5 7 11 12 12 11 11 8 6 6 5 4 5 5 7 10 11 10 10 10 10 11 12 12 11 9 9 11 11 10 10 8 7 8 9 8 8 10 10 9 9 10 10 11 12 10 8 7 7 7 7 7 6 6 7 7 7 9 11 11 10 9 9 8 8 8 9 9 7 6 9 12 13 13 11
11 10 9 8 6 5 5 4 3 3 5 6 8 10 12 13 13 12 10 8 6 4 4 4 4 7 9 7 8 10 9 10 13 13 11 9 6 7 8 8 8 7 6 6 8 9 9 11 12 12 12 12 12 11 11 10 8 7 7 7 7 6 6 7 8 9 11 12 12 12 11 10 8 8 8 7 7 7 5 5 9 11 10 9 7
10 12 11 8 6 5 4 3 3 4 5 6 7 9 9 9 10 12 11 10 9 6 3 2 3 6 7 5 6 9 9 9 12 12 10 8 5 4 6 7 7 7 8 8 9 10 13 15 15 14 14 12 11 10 8 7 7 7 6 7 6 5 6 9 12 14 16 15 12 8 7 6 5 4 4 6 7 6 5 7 10 9 7 6 5
8 9 9 7 6 6 3 1 3 4 3 4 6 8 8 6 7 9 8 10 13 11 4 2 3 5 7 6 6 8 8 9 11 13 12 9 7 7 7 6 6 7 7 7 9 12 15 17 15 13 13 11 9 8 7 7 7 7 7 7 7 10 13 14 16 17 15 13 15 15 11 10 11 9 9 13 16 16 18 22 19 11 6 7 9
8 7 7 6 5 4 2 2 3 3 2 1 2 5 7 5 4 7 9 9 12 12 7 3 3 5 6 6 5 5 7 10 12 14 14 11 8 8 8 7 7 8 6 8 13 16 15 15 13 11 11 10 8 8 8 7 6 6 8 9 11 13 11 5 5 9 7 3 7 11 9 10 13 10 4 1 -0 1 8 16 16 12 8 3 -1
11 8 7 6 5 4 3 2 3 4 3 1 1 2 4 4 5 6 6 5 8 11 9 5 5 7 6 5 5 5 5 8 11 12 13 12 10 9 9 8 7 7 7 11 16 16 13 12 12 11 9 8 9 8 7 7 8 7 8 9 11 12 11 4 1 6 8 4 3 2 2 7 13 12 6 2 2 4 10 11 8 9 14 9 -2
14 11 8 7 5 5 5 3 3 4 4 4 5 4 3 5 6 2 1 6 9 8 7 5 5 7 9 7 5 5 4 5 9 11 13 13 12 9 9 8 8 9 11 14 14 13 12 11 11 13 12 10 10 9 5 6 8 7 7 8 7 8 14 15 10 7 7 6 5 3 3 8 14 14 11 10 10 9 12 16 14 11 15 20 19
17 14 11 9 6 5 6 5 3 5 4 3 5 3 -0 1 -0 -6 -0 15 16 5 4 8 6 5 10 11 6 4 5 5 6 9 12 13 12 11 9 10 12 11 11 13 12 11 11 10 11 16 17 12 9 10 11 13 12 7 10 15 9 2 6 12 10 6 4 4 6 10 9 7 7 6 2 2 6 9 17 30 35 26 16 14 16
18 15 12 11 8 6 7 6 6 7 6 4 4 2 -1 4 5 -8 -10 11 23 10 -1 4 7 4 8 13 9 4 5 7 6 6 9 11 11 11 10 11 13 11 9 11 12 11 11 11 12 17 18 13 7 7 12 15 10 2 5 15 12 2 1 3 2 2 5 6 7 9 8 4 3 2 -0 2 10 16 20 22 22 22 24 19 12
12 12 10 11 11 10 8 7 7 7 5 4 6 5 3 8 15 5 -11 -3 20 22 2 -4 6 8 3 8 13 6 2 6 6 4 5 8 9 10 11 12 11 11 9 8 10 11 10 9 11 14 14 12 12 12 12 13 7 -3 -3 5 8 4 2 1 1 4 8 8 5 3 2 3 4 2 2 6 10 11 12 10 8 14 27 26 13
6 8 9 10 11 13 13 11 11 11 9 6 7 13 12 7 11 16 4 -9 5 26 19 2 4 9 2 2 12 11 3 2 4 3 4 9 9 8 10 11 9 9 9 9 10 11 7 5 9 12 8 8 14 16 13 10 4 -4 -6 -1 2 1 0 2 6 8 7 4 3 1 1 3 3 0 2 9 11 9 7 8 9 13 21 22 13
4 5 7 8 9 12 14 13 13 14 13 10 13 21 24 15 8 16 18 3 -0 22 32 16 5 10 8 0 6 14 10 4 5 5 3 6 9 10 9 8 7 8 9 8 8 8 8 8 10 8 5 10 18 19 16 12 4 -4 -4 -0 1 0 1 3 5 5 3 2 3 2 1 1 1 1 5 10 11 9 8 8 9 11 14 17 16
6 6 5 5 7 9 10 12 15 14 11 12 13 13 16 19 15 13 19 18 11 20 33 27 10 8 8 0 2 14 15 6 8 14 11 6 7 9 8 6 8 10 8 5 7 11 13 12 9 6 8 12 12 10 12 13 4 -4 -1 4 3 2 4 5 3 1 0 1 2 2 3 6 6 6 9 10 9 8 9 12 14 14 12 13 15
6 6 4 3 3 5 7 9 11 12 10 11 11 7 7 14 16 10 15 24 22 19 27 27 14 8 9 4 1 11 16 7 3 11 14 9 7 8 7 6 7 7 3 2 9 18 19 14 11 9 9 7 2 -3 -0 3 -0 -2 3 7 4 2 4 7 5 2 1 2 3 4 9 10 7 6 9 10 7 7 10 12 13 13 12 10 9
6 8 8 5 3 6 8 7 7 10 11 11 12 13 13 12 9 6 10 20 21 17 20 23 17 11 10 4 -2 5 16 14 5 5 10 10 7 7 8 7 6 7 6 4 7 12 13 13 16 17 12 9 9 9 7 5 3 3 4 3 1 2 5 6 4 1 1 3 3 4 7 7 6 8 11 8 6 10 15 17 16 14 13 12 10
7 10 10 8 8 9 9 8 8 9 10 11 11 11 11 10 9 8 10 12 12 14 19 22 19 13 9 4 2 7 13 11 3 1 7 9 6 6 10 10 8 7 9 7 3 1 1 6 15 18 13 9 9 10 10 8 7 5 4 2 2 3 3 2 0 0 3 5 4 4 7 9 12 16 14 6 5 12 15 15 17 16 12 11 11
4 8 10 10 13 16 16 14 13 11 10 12 13 12 9 8 8 10 11 10 8 11 18 22 21 18 13 6 2 4 8 7 3 1 5 9 8 6 8 11 11 10 10 9 7 3 1 4 8 10 10 10 9 8 8 7 5 4 4 4 4 3 3 3 4 5 6 7 8 10 14 14 14 14 10 3 4 11 12 10 10 9 6 6 7
1 5 8 5 4 11 17 16 16 18 18 12 9 10 11 9 7 8 10 11 10 11 17 21 21 20 16 10 6 5 4 3 7 12 13 12 9 5 4 6 8 9 7 6 4 2 2 3 4 3 3 4 5 4 5 5 5 4 4 4 4 5 5 5 6 7 8 12 15 15 14 11 9 8 7 4 3 7 11 11 6 1 1 4 6
3 4 9 11 8 8 11 9 9 20 27 20 11 11 11 9 8 6 6 11 15 16 17 20 22 19 15 11 10 8 5 5 14 22 19 11 7 6 5 4 4 5 6 6 5 5 4 4 4 5 4 4 5 5 5 5 4 4 5 5 5 6 6 6 7 9 13 17 18 13 8 6 5 5 6 5 5 9 14 13 5 -2 -2 0 0
4 -2 6 17 15 10 14 14 9 15 24 18 7 7 9 9 11 11 7 8 14 14 14 17 20 20 22 21 12 4 7 13 15 11 5 -0 -2 -2 -1 0 2 5 7 6 4 5 5 4 4 6 8 8 7 6 5 6 6 4 4 5 5 5 7 8 8 10 12 12 10 6 3 3 4 6 7 9 13 17 19 12 -0 -7 -6 -2 -0
8 5 11 18 12 12 22 18 4 20 52 56 37 25 20 15 16 20 18 13 10 10 14 22 20 14 18 23 16 9 11 13 8 2 4 9 10 8 7 7 8 8 8 6 4 6 8 6 5 7 9 12 13 12 10 8 7 6 8 8 7 7 9 11 11 12 12 10 7 5 3 3 5 9 12 13 16 18 17 9 -2 -7 -5 -2 -0
1 -5 -1 4 -1 2 18 13 -2 17 57 67 49 40 37 27 21 25 30 34 36 33 30 31 28 21 19 19 15 11 11 6 2 5 10 11 10 10 8 6 7 6 4 2 1 3 5 5 3 2 0 2 8 11 9 7 9 14 19 19 15 9 9 10 10 10 10 9 9 8 8 9 12 13 12 10 9 7 5 2 -2 -3 -3 -2 -1
1 -11 -7 6 4 -2 5 11 1 -12 -22 -33 -32 -9 8 7 4 5 8 17 31 38 41 45 47 44 39 30 17 11 10 6 3 9 13 9 6 6 3 0 2 1 -2 -1 3 4 4 5 6 4 -1 -2 1 4 5 5 8 12 15 17 16 14 10 8 7 8 8 8 9 10 12 13 11 7 5 5 5 2 1 0 -1 -2 -1 -0 0
8 1 1 14 19 7 1 7 9 -4 -27 -41 -29 -4 7 2 -1 2 4 4 4 10 32 60 70 62 53 39 17 3 4 9 11 17 20 15 10 5 -1 -3 0 1 -0 2 5 2 -2 -0 4 6 5 3 3 6 8 8 8 9 9 10 11 12 11 9 8 8 10 10 8 9 10 10 6 3 2 3 2 0 -0 -0 -1 -1 1 1 1
Height
5920 5922 5924 5926 5928 5930 5932 5934 5936 5937 5938 5940 5941 5942 5944 5945 5946 5947 5949 5950 5951 5952 5954 5955 5956 5957 5958 5958 5959 5960 5961 5962 5962 5963 5964 5965 5965 5966 5966 5967 5967 5968 5968 5968 5969 5969 5969 5969 5969 5970 5970 5970 5970 5971 5971 5972 5972 5972 5972 5973 5973 5973 5973 5974 5974 5974 5974 5974 5974 5974 5974 5974 5974 5974 5973 5972 5972 5971 5971 5970 5970 5969 5968 5967 5965
5917 5919 5922 5925 5927 5929 5931 5933 5934 5936 5938 5939 5940 5942 5943 5944 5946 5947 5948 5949 5951 5952 5953 5954 5956 5957 5958 5958 5959 5960 5961 5961 5962 5963 5964 5965 5965 5966 5967 5967 5967 5968 5968 5968 5969 5969 5969 5969 5969 5969 5969 5970 5970 5970 5971 5971 5971 5972 5972 5972 5973 5973 5973 5973 5973 5973 5973 5974 5974 5974 5974 5974 5974 5973 5973 5973 5972 5972 5972 5971 5970 5969 5968 5966 5965
5915 5917 5919 5922 5925 5927 5929 5931 5933 5935 5937 5938 5939 5940 5942 5943 5945 5946 5948 5949 5950 5951 5952 5953 5955 5956 5957 5958 5959 5959 5960 5961 5962 5963 5964 5964 5965 5966 5966 5967 5967 5968 5968 5968 5969 5969 5969 5969 5969 5969 5969 5969 5969 5970 5970 5970 5971 5971 5972 5972 5972 5972 5972 5973 5973 5973 5973 5973 5973 5973 5974 5974 5974 5973 5973 5973 5973 5972 5972 5971 5970 5968 5967 5966 5965
5913 5915 5917 5919 5921 5924 5927 5929 5931 5934 5935 5937 5938 5939 5940 5941 5943 5945 5946 5948 5949 5950 5951 5953 5954 5955 5957 5958 5958 5959 5960 5961 5962 5963 5963 5964 5965 5965 5966 5967 5967 5968 5968 5968 5968 5969 5969 5969 5969 5969 5969 5969 5969 5969 5969 5969 5970 5970 5971 5971 5971 5971 5972 5972 5972 5972 5972 5972 5972 5973 5973 5973 5973 5973 5973 5973 5972 5972 5971 5971 5969 5968 5967 5966 5966
5911 5913 5915 5916 5918 5921 5925 5928 5930 5932 5933 5935 5936 5937 5938 5940 5941 5943 5945 5946 5948 5949 5950 5951 5953 5954 5955 5956 5957 5958 5959 5960 5961 5962 5963 5963 5964 5965 5965 5966 5966 5967 5967 5967 5968 5968 5968 5968 5968 5968 5968 5968 5968 5968 5968 5969 5969 5969 5970 5970 5970 5970 5971 5971 5971 5971 5971 5971 5972 5972 5972 5972 5972 5972 5972 5972 5972 5971 5971 5970 5969 5968 5966 5966 5966
5910 5911 5912 5914 5916 5919 5922 5925 5928 5930 5931 5932 5934 5935 5936 5938 5939 5941 5942 5944 5945 5947 5949 5950 5951 5953 5954 5955 5956 5957 5958 5959 5960 5961 5962 5963 5963 5964 5965 5965 5966 5966 5966 5967 5967 5967 5967 5967 5967 5967 5968 5968 5968 5968 5968 5968 5968 5968 5968 5969 5969 5969 5970 5970 5970 5970 5970 5970 5970 5970 5971 5971 5971 5971 5971 5972 5971 5971 5970 5970 5969 5967 5966 5966 5965
5908 5909 5910 5912 5914 5916 5919 5922 5925 5926 5928 5929 5931 5932 5934 5936 5937 5939 5940 5941 5943 5945 5947 5948 5950 5951 5952 5953 5954 5955 5956 5957 5958 5960 5961 5962 5962 5963 5964 5964 5964 5965 5965 5965 5966 5966 5966 5966 5966 5966 5966 5966 5967 5967 5967 5967 5967 5967 5967 5967 5968 5968 5968 5968 5969 5969 5969 5969 5969 5969 5969 5970 5970 5970 5970 5971 5971 5970 5969 5969 5968 5967 5966 5965 5965
5906 5907 5909 5910 5912 5913 5916 5918 5920 5922 5924 5925 5927 5930 5932 5934 5935 5936 5937 5939 5941 5943 5944 5946 5947 5949 5950 5951 5952 5953 5954 5955 5957 5958 5959 5960 5961 5962 5962 5963 5963 5964 5964 5964 5964 5964 5965 5965 5965 5965 5965 5965 5965 5966 5966 5966 5966 5966 5966 5966 5966 5966 5967 5967 5967 5967 5968 5968 5968 5968 5968 5968 5969 5969 5969 5969 5969 5969 5969 5968 5968 5966 5965 5964 5964
5904 5905 5907 5908 5909 5910 5912 5914 5916 5918 5920 5922 5925 5927 5929 5931 5933 5934 5936 5937 5938 5940 5942 5943 5945 5946 5948 5949 5950 5952 5953 5954 5955 5956 5957 5958 5959 5960 5961 5961 5962 5962 5963 5963 5963 5963 5963 5963 5963 5964 5964 5964 5964 5964 5964 5964 5964 5964 5964 5965 5965 5965 5965 5965 5965 5965 5966 5966 5966 5966 5966 5967 5967 5967 5967 5968 5968 5968 5968 5967 5967 5966 5964 5963 5962
5901 5903 5904 5906 5907 5908 5910 5912 5914 5916 5918 5920 5922 5924 5926 5928 5930 5932 5933 5935 5936 5937 5938 5940 5942 5944 5946 5947 5948 5950 5951 5952 5953 5954 5955 5956 5957 5958 5959 5960 5960 5961 5961 5961 5962 5962 5962 5962 5962 5962 5962 5962 5962 5963 5963 5963 5963 5963 5963 5963 5963 5963 5963 5964 5963 5964 5964 5964 5964 5965 5965 5965 5965 5965 5965 5966 5966 5966 5966 5965 5965 5965 5963 5962 5961
5898 5900 5902 5903 5905 5907 5909 5911 5912 5914 5916 5918 5919 5921 5923 5925 5927 5929 5930 5932 5933 5934 5935 5937 5940 5941 5943 5944 5946 5947 5949 5949 5950 5951 5952 5953 5955 5956 5957 5958 5958 5959 5959 5960 5960 5960 5961 5961 5960 5960 5961 5961 5961 5961 5961 5962 5962 5962 5962 5962 5962 5962 5962 5962 5962 5962 5962 5962 5962 5963 5963 5963 5963 5963 5963 5963 5964 5964 5964 5963 5963 5963 5962 5961 5960
5896 5898 5900 5902 5905 5907 5909 5910 5912 5913 5914 5916 5917 5919 5920 5922 5924 5926 5927 5929 5930 5931 5932 5935 5937 5938 5940 5941 5943 5945 5946 5947 5947 5949 5950 5951 5952 5953 5954 5955 5956 5957 5957 5958 5958 5959 5959 5959 5959 5959 5959 5959 5959 5959 5960 5960 5960 5960 5960 5960 5960 5960 5960 5960 5960 5960 5960 5960 5960 5961 5961 5961 5961 5961 5961 5961 5961 5961 5961 5961 5961 5960 5959 5959 5958
5896 5899 5900 5903 5905 5907 5909 5910 5911 5912 5913 5914 5915 5917 5918 5920 5922 5923 5924 5925 5926 5928 5930 5931 5933 5935 5937 5939 5940 5942 5943 5944 5945 5946 5947 5949 5950 5950 5951 5953 5954 5954 5955 5956 5956 5956 5957 5957 5957 5957 5957 5957 5957 5958 5958 5958 5958 5958 5958 5958 5958 5958 5958 5958 5958 5958 5958 5958 5958 5958 5959 5959 5958 5958 5959 5959 5958 5959 5959 5958 5958 5958 5957 5956 5956
5893 5895 5897 5900 5902 5904 5907 5909 5910 5911 5912 5913 5914 5915 5917 5918 5919 5920 5920 5921 5923 5925 5927 5928 5929 5932 5934 5936 5937 5939 5940 5941 5942 5943 5944 5946 5947 5948 5949 5950 5951 5952 5952 5953 5954 5954 5955 5955 5955 5955 5955 5956 5956 5956 5956 5956 5956 5956 5956 5956 5956 5956 5956 5956 5956 5956 5956 5956 5956 5956 5956 5957 5956 5955 5956 5956 5956 5956 5956 5956 5956 5955 5955 5954 5953
5888 5890 5892 5895 5898 5900 5903 5906 5907 5908 5910 5911 5912 5913 5914 5915 5916 5916 5917 5919 5920 5922 5923 5924 5926 5928 5930 5932 5934 5935 5937 5938 5939 5940 5941 5942 5944 5945 5946 5947 5948 5949 5950 5951 5951 5952 5952 5953 5953 5953 5954 5954 5954 5954 5954 5954 5954 5955 5954 5954 5954 5954 5954 5954 5954 5954 5954 5954 5954 5953 5953 5954 5953 5953 5953 5953 5953 5953 5953 5953 5953 5953 5953 5952 5951
5884 5887 5889 5891 5893 5897 5900 5902 5904 5905 5907 5908 5910 5910 5911 5912 5913 5913 5914 5915 5917 5918 5919 5921 5922 5924 5926 5928 5930 5932 5934 5935 5936 5937 5938 5939 5940 5942 5943 5944 5945 5946 5947 5948 5948 5949 5949 5950 5950 5951 5951 5952 5952 5952 5952 5952 5952 5953 5952 5952 5952 5952 5952 5952 5951 5952 5952 5952 5951 5951 5951 5950 5951 5950 5950 5950 5950 5951 5951 5951 5951 5951 5951 5950 5948
5882 5884 5886 5888 5890 5893 5896 5898 5900 5901 5903 5905 5907 5907 5908 5909 5910 5910 5911 5912 5913 5915 5916 5917 5919 5920 5922 5924 5927 5929 5930 5931 5932 5934 5934 5935 5937 5938 5940 5941 5942 5943 5944 5944 5945 5946 5946 5947 5947 5948 5948 5949 5949 5949 5949 5950 5950 5950 5950 5950 5949 5949 5949 5949 5949 5949 5949 5949 5948 5948 5948 5948 5948 5948 5948 5948 5948 5948 5949 5948 5948 5948 5948 5947 5946
5880 5881 5883 5884 5887 5889 5892 5894 5896 5898 5900 5902 5903 5904 5905 5906 5907 5907 5908 5909 5910 5911 5912 5913 5915 5917 5918 5920 5923 5925 5926 5927 5929 5930 5931 5932 5933 5935 5936 5938 5939 5940 5941 5941 5942 5943 5944 5944 5944 5945 5945 5945 5945 5946 5946 5947 5947 5947 5947 5947 5947 5947 5946 5945 5946 5946 5946 5946 5946 5946 5946 5945 5945 5945 5945 5945 5945 5946 5946 5946 5945 5945 5944 5944 5943
5874 5876 5878 5880 5883 5885 5887 5889 5891 5894 5896 5898 5899 5900 5902 5902 5903 5904 5905 5906 5907 5907 5908 5910 5912 5914 5915 5917 5919 5920 5922 5923 5925 5927 5928 5928 5930 5931 5932 5934 5936 5937 5938 5939 5939 5940 5940 5941 5941 5942 5942 5942 5942 5942 5943 5944 5944 5944 5944 5944 5944 5944 5942 5942 5942 5943 5943 5943 5943 5943 5943 5943 5943 5943 5942 5942 5942 5943 5943 5943 5942 5942 5941 5940 5940
5868 5871 5873 5876 5879 5881 5883 5885 5887 5890 5892 5894 5895 5896 5898 5899 5900 5901 5902 5902 5903 5904 5905 5907 5909 5910 5912 5913 5915 5917 5918 5920 5922 5923 5924 5925 5926 5928 5929 5931 5932 5933 5934 5935 5936 5936 5936 5937 5938 5938 5938 5938 5938 5939 5940 5941 5941 5941 5941 5941 5941 5940 5939 5939 5940 5940 5940 5940 5940 5940 5940 5940 5940 5940 5939 5939 5939 5940 5940 5939 5938 5938 5938 5937 5936
5864 5866 5869 5871 5875 5879 5881 5882 5884 5885 5888 5890 5891 5892 5894 5895 5897 5897 5898 5899 5900 5901 5902 5904 5905 5907 5909 5910 5912 5914 5915 5917 5918 5919 5920 5922 5923 5924 5926 5927 5928 5929 5930 5931 5931 5932 5933 5933 5933 5933 5934 5934 5934 5935 5936 5937 5937 5938 5938 5938 5937 5936 5936 5936 5936 5936 5937 5937 5937 5937 5937 5937 5937 5936 5936 5936 5937 5937 5936 5936 5935 5935 5934 5934 5933
5860 5862 5864 5867 5870 5874 5878 5880 5881 5882 5883 5885 5886 5888 5890 5892 5893 5893 5894 5895 5896 5898 5899 5901 5902 5904 5905 5907 5909 5911 5912 5913 5914 5916 5917 5919 5920 5921 5922 5924 5924 5924 5925 5926 5928 5928 5928 5929 5929 5929 5929 5929 5930 5931 5932 5932 5933 5934 5935 5934 5934 5933 5933 5932 5932 5933 5933 5933 5934 5934 5934 5933 5933 5933 5934 5934 5934 5934 5933 5933 5932 5931 5931 5930 5929
5855 5858 5861 5863 5866 5869 5872 5875 5877 5878 5879 5881 5882 5884 5886 5887 5889 5890 5890 5891 5892 5894 5896 5898 5899 5901 5903 5905 5907 5908 5909 5910 5911 5912 5914 5915 5916 5917 5919 5920 5920 5920 5921 5922 5923 5924 5923 5924 5924 5924 5924 5925 5926 5927 5927 5928 5929 5930 5930 5930 5930 5930 5929 5929 5929 5929 5930 5930 5930 5930 5930 5930 5931 5931 5931 5931 5931 5931 5930 5930 5929 5928 5927 5926 5926
5851 5854 5857 5860 5862 5864 5866 5869 5872 5875 5876 5877 5879 5880 5882 5883 5885 5886 5886 5887 5889 5890 5893 5895 5897 5899 5900 5902 5904 5905 5906 5907 5908 5909 5910 5911 5912 5913 5915 5915 5915 5916 5917 5918 5919 5919 5919 5919 5919 5920 5920 5921 5922 5922 5923 5924 5925 5926 5925 5925 5926 5926 5926 5925 5925 5925 5926 5927 5927 5927 5927 5927 5928 5928 5928 5928 5928 5928 5927 5927 5926 5925 5924 5923 5922
5846 5849 5853 5856 5859 5861 5862 5864 5867 5870 5873 5874 5875 5877 5878 5879 5880 5882 5883 5884 5885 5887 5889 5891 5894 5896 5897 5899 5900 5902 5902 5903 5904 5906 5906 5907 5908 5909 5910 5911 5911 5911 5913 5914 5915 5915 5915 5915 5915 5916 5916 5917 5917 5918 5920 5921 5921 5921 5921 5921 5922 5922 5922 5922 5922 5922 5923 5924 5925 5925 5925 5925 5925 5925 5924 5924 5924 5924 5924 5923 5922 5921 5920 5919 5919
5842 5845 5848 5851 5855 5857 5859 5860 5862 5865 5868 5870 5872 5874 5874 5875 5876 5877 5879 5881 5883 5885 5886 5888 5890 5892 5894 5896 5897 5898 5898 5899 5900 5902 5903 5903 5904 5905 5906 5906 5906 5907 5908 5910 5910 5911 5911 5911 5911 5911 5912 5912 5913 5915 5916 5917 5917 5917 5917 5917 5918 5918 5918 5918 5918 5919 5921 5922 5922 5922 5922 5922 5921 5921 5921 5921 5920 5920 5920 5919 5918 5917 5916 5915 5915
5837 5840 5843 5847 5850 5852 5854 5857 5859 5861 5863 5866 5868 5869 5870 5871 5872 5874 5876 5878 5880 5882 5883 5885 5887 5889 5891 5893 5893 5893 5893 5895 5896 5898 5899 5899 5900 5901 5902 5902 5903 5903 5904 5906 5906 5906 5906 5906 5906 5906 5907 5908 5909 5911 5912 5912 5913 5913 5913 5913 5913 5913 5913 5914 5915 5917 5918 5918 5919 5919 5918 5918 5918 5917 5917 5917 5916 5916 5916 5915 5914 5913 5912 5911 5911
5831 5835 5838 5841 5844 5847 5849 5852 5854 5856 5858 5861 5863 5864 5866 5867 5869 5871 5873 5875 5877 5878 5879 5881 5883 5885 5887 5888 5888 5888 5889 5891 5893 5894 5895 5895 5896 5897 5897 5898 5899 5899 5900 5901 5901 5901 5901 5902 5902 5903 5904 5905 5906 5907 5908 5908 5908 5908 5908 5908 5908 5908 5909 5910 5912 5913 5913 5914 5915 5915 5914 5914 5914 5913 5913 5913 5913 5912 5911 5910 5909 5908 5907 5906 5906
5826 5830 5833 5836 5838 5841 5844 5847 5849 5851 5853 5855 5858 5860 5862 5863 5865 5867 5869 5871 5872 5873 5875 5877 5879 5881 5882 5883 5883 5884 5886 5887 5888 5888 5889 5890 5890 5891 5892 5893 5894 5895 5895 5895 5895 5896 5898 5899 5899 5900 5901 5901 5902 5903 5903 5903 5903 5902 5902 5902 5902 5903 5904 5906 5907 5908 5909 5910 5911 5911 5911 5910 5910 5910 5911 5910 5909 5908 5906 5905 5905 5903 5902 5902 5901
5821 5824 5827 5829 5832 5835 5838 5841 5843 5845 5847 5850 5853 5855 5856 5858 5860 5862 5864 5866 5868 5869 5871 5873 5875 5876 5877 5877 5879 5881 5882 5883 5883 5882 5883 5885 5886 5887 5887 5888 5889 5890 5891 5890 5891 5894 5896 5896 5897 5897 5898 5898 5899 5898 5898 5898 5897 5897 5897 5896 5896 5897 5899 5901 5902 5903 5905 5906 5907 5907 5906 5906 5906 5906 5907 5906 5905 5903 5901 5901 5900 5899 5898 5897 5896
5815 5818 5820 5822 5825 5829 5832 5835 5837 5839 5842 5845 5847 5849 5852 5854 5857 5859 5861 5863 5864 5866 5868 5870 5871 5871 5872 5873 5875 5876 5878 5878 5878 5879 5880 5881 5882 5883 5883 5884 5885 5886 5886 5886 5888 5891 5893 5893 5893 5894 5894 5894 5894 5894 5893 5893 5892 5891 5890 5889 5890 5892 5893 5894 5896 5899 5900 5901 5902 5901 5900 5900 5900 5900 5900 5900 5899 5898 5897 5896 5895 5894 5893 5892 5891
5808 5811 5813 5815 5818 5822 5825 5828 5831 5833 5836 5838 5840 5844 5849 5853 5855 5857 5859 5861 5862 5864 5865 5866 5867 5867 5868 5869 5870 5872 5873 5874 5875 5875 5876 5877 5878 5879 5879 5880 5880 5880 5880 5882 5885 5888 5888 5889 5890 5890 5891 5891 5891 5890 5889 5888 5886 5885 5884 5883 5884 5885 5885 5888 5893 5897 5897 5897 5897 5897 5896 5896 5896 5896 5896 5895 5895 5894 5893 5892 5890 5888 5886 5885 5885
5801 5804 5806 5808 5811 5815 5819 5822 5826 5828 5830 5832 5835 5839 5843 5847 5850 5852 5854 5856 5858 5860 5862 5863 5864 5864 5865 5866 5867 5868 5869 5870 5870 5871 5872 5872 5873 5874 5874 5874 5874 5874 5876 5879 5882 5883 5883 5884 5884 5885 5885 5884 5884 5882 5881 5880 5879 5877 5876 5876 5878 5880 5884 5889 5894 5894 5893 5892 5892 5892 5892 5892 5892 5892 5892 5892 5891 5890 5888 5886 5884 5883 5881 5880 5880
5795 5798 5800 5802 5805 5808 5812 5816 5819 5822 5825 5828 5831 5834 5837 5839 5842 5844 5846 5848 5850 5853 5855 5858 5860 5861 5861 5862 5863 5864 5864 5865 5866 5866 5867 5868 5868 5868 5868 5868 5869 5870 5873 5876 5878 5878 5878 5878 5879 5879 5880 5879 5878 5877 5877 5876 5875 5873 5873 5875 5877 5880 5884 5889 5890 5888 5887 5887 5887 5887 5887 5887 5887 5887 5887 5887 5886 5885 5883 5880 5879 5878 5878 5877 5877
5790 5793 5795 5798 5800 5802 5805 5808 5812 5815 5818 5822 5826 5829 5832 5834 5836 5838 5840 5841 5842 5845 5848 5850 5853 5854 5855 5856 5857 5858 5859 5859 5860 5861 5862 5862 5862 5862 5863 5864 5865 5867 5869 5871 5873 5873 5874 5874 5876 5878 5881 5881 5880 5880 5879 5878 5876 5875 5876 5877 5876 5876 5879 5883 5884 5883 5883 5883 5883 5882 5881 5881 5881 5882 5882 5882 5881 5880 5878 5875 5873 5873 5872 5872 5871
5784 5787 5790 5793 5795 5797 5800 5803 5806 5809 5813 5816 5819 5823 5826 5830 5833 5836 5837 5836 5837 5839 5841 5843 5845 5847 5848 5849 5850 5852 5853 5853 5854 5855 5856 5857 5857 5857 5858 5859 5861 5863 5866 5869 5870 5871 5871 5872 5873 5875 5877 5878 5877 5875 5874 5873 5872 5872 5873 5872 5872 5872 5874 5877 5878 5879 5879 5878 5878 5877 5876 5876 5876 5877 5877 5877 5876 5874 5872 5870 5868 5867 5866 5865 5865
5779 5782 5785 5787 5789 5792 5795 5798 5801 5803 5806 5810 5813 5815 5819 5822 5826 5829 5831 5832 5833 5834 5835 5836 5838 5840 5842 5843 5844 5846 5847 5848 5848 5849 5851 5852 5852 5853 5854 5856 5859 5862 5864 5865 5866 5867 5867 5867 5868 5869 5869 5870 5870 5870 5870 5869 5867 5867 5867 5868 5869 5871 5872 5872 5872 5874 5874 5874 5874 5873 5872 5872 5872 5871 5871 5871 5870 5868 5866 5865 5863 5862 5860 5859 5858
5772 5775 5778 5780 5783 5786 5789 5792 5795 5798 5801 5803 5806 5808 5811 5813 5817 5820 5822 5825 5827 5828 5829 5830 5831 5833 5835 5836 5837 5839 5840 5841 5842 5844 5846 5847 5848 5849 5851 5854 5856 5858 5859 5860 5861 5862 5861 5861 5861 5862 5862 5864 5865 5866 5866 5866 5865 5864 5864 5865 5866 5868 5869 5868 5868 5869 5869 5869 5869 5869 5868 5867 5866 5865 5865 5864 5864 5862 5861 5860 5859 5857 5856 5854 5853
5765 5768 5771 5774 5777 5780 5783 5786 5789 5792 5795 5797 5799 5801 5803 5805 5808 5811 5813 5816 5819 5821 5823 5825 5826 5827 5828 5829 5829 5830 5831 5834 5837 5840 5841 5843 5844 5845 5848 5850 5850 5851 5853 5855 5856 5857 5856 5856 5856 5857 5857 5858 5861 5861 5861 5861 5861 5861 5862 5862 5862 5864 5865 5865 5865 5865 5865 5865 5864 5864 5863 5862 5861 5860 5860 5859 5858 5857 5856 5855 5854 5853 5851 5850 5849
5759 5762 5765 5768 5771 5774 5777 5780 5782 5785 5788 5791 5793 5795 5797 5799 5801 5804 5806 5809 5811 5813 5815 5818 5820 5822 5822 5822 5821 5822 5824 5830 5836 5838 5838 5839 5840 5842 5843 5844 5843 5844 5847 5850 5852 5853 5853 5853 5853 5852 5851 5852 5854 5854 5853 5854 5855 5856 5857 5857 5856 5857 5858 5859 5859 5859 5859 5859 5859 5858 5858 5857 5855 5854 5854 5853 5852 5851 5850 5849 5848 5847 5846 5846 5845
5754 5756 5758 5761 5763 5766 5770 5773 5776 5778 5781 5784 5787 5789 5791 5793 5795 5797 5800 5803 5805 5806 5808 5810 5813 5816 5817 5816 5815 5817 5820 5826 5832 5834 5834 5835 5835 5836 5837 5837 5837 5837 5840 5843 5846 5849 5850 5850 5848 5847 5846 5846 5846 5846 5846 5847 5848 5850 5851 5851 5851 5851 5851 5851 5852 5853 5853 5853 5853 5852 5851 5850 5848 5847 5847 5846 5844 5844 5844 5843 5842 5841 5840 5840 5840
5748 5750 5752 5754 5756 5759 5762 5766 5769 5772 5774 5777 5781 5783 5785 5787 5789 5792 5796 5800 5801 5802 5802 5804 5806 5809 5810 5810 5811 5813 5816 5819 5822 5825 5827 5828 5829 5830 5830 5832 5832 5832 5833 5835 5838 5841 5844 5844 5843 5842 5842 5841 5841 5841 5842 5843 5844 5845 5845 5845 5846 5845 5844 5843 5844 5845 5846 5845 5845 5845 5844 5844 5842 5841 5840 5839 5838 5837 5836 5836 5835 5835 5834 5833 5833
5742 5745 5747 5748 5750 5752 5756 5759 5763 5766 5769 5771 5774 5777 5779 5781 5783 5786 5790 5793 5794 5795 5797 5798 5800 5802 5804 5804 5806 5809 5810 5811 5812 5814 5817 5820 5822 5824 5825 5826 5827 5827 5827 5828 5829 5832 5834 5836 5837 5837 5837 5837 5837 5838 5838 5839 5839 5840 5840 5839 5839 5839 5838 5836 5836 5837 5838 5837 5837 5837 5838 5837 5836 5835 5834 5833 5832 5831 5830 5829 5828 5828 5827 5826 5825
5735 5738 5741 5743 5745 5747 5750 5752 5756 5759 5763 5766 5768 5770 5772 5774 5776 5779 5782 5784 5786 5788 5790 5791 5792 5794 5795 5797 5800 5802 5803 5805 5806 5807 5809 5813 5815 5817 5818 5820 5822 5822 5823 5823 5823 5824 5825 5827 5829 5830 5831 5832 5832 5833 5834 5834 5835 5834 5834 5833 5833 5833 5832 5831 5830 5830 5830 5830 5830 5830 5830 5829 5828 5827 5827 5826 5825 5824 5823 5822 5822 5820 5819 5819 5819
5729 5732 5735 5738 5741 5743 5744 5747 5750 5752 5756 5760 5762 5764 5765 5766 5769 5772 5774 5775 5777 5779 5780 5780 5782 5784 5787 5790 5793 5796 5798 5799 5801 5801 5802 5805 5808 5810 5812 5814 5816 5817 5818 5819 5819 5819 5820 5821 5821 5823 5824 5826 5827 5828 5828 5829 5829 5829 5828 5827 5827 5826 5826 5825 5824 5823 5823 5823 5822 5822 5822 5821 5820 5819 5818 5817 5817 5816 5815 5814 5814 5813 5812 5812 5811
5723 5726 5729 5733 5736 5738 5740 5742 5744 5746 5750 5754 5756 5757 5758 5759 5762 5764 5766 5768 5769 5771 5771 5772 5774 5777 5780 5783 5786 5790 5793 5795 5796 5796 5797 5798 5800 5802 5804 5807 5809 5811 5813 5815 5815 5816 5816 5817 5817 5818 5819 5820 5820 5821 5822 5822 5823 5823 5822 5821 5820 5820 5819 5819 5818 5817 5817 5816 5815 5814 5814 5813 5812 5811 5810 5809 5808 5808 5807 5807 5806 5806 5805 5804 5803
5718 5721 5724 5727 5731 5734 5736 5738 5740 5742 5744 5746 5748 5749 5750 5753 5755 5758 5759 5760 5761 5763 5764 5765 5767 5770 5773 5776 5780 5784 5787 5790 5791 5793 5794 5796 5797 5798 5799 5800 5802 5805 5807 5809 5810 5811 5811 5812 5813 5813 5814 5814 5814 5814 5815 5815 5815 5815 5814 5814 5814 5813 5812 5812 5812 5811 5810 5809 5808 5807 5806 5805 5804 5803 5801 5800 5799 5799 5799 5799 5799 5798 5797 5796 5795
5713 5717 5720 5723 5726 5729 5732 5735 5738 5738 5736 5734 5736 5740 5743 5746 5749 5751 5751 5752 5752 5754 5755 5757 5759 5762 5765 5768 5773 5777 5780 5783 5785 5787 5789 5791 5792 5792 5793 5795 5796 5798 5800 5802 5803 5804 5805 5806 5806 5807 5807 5808 5807 5808 5808 5808 5808 5807 5807 5806 5806 5806 5806 5805 5805 5804 5804 5803 5801 5800 5799 5798 5797 5795 5794 5793 5792 5791 5791 5791 5790 5790 5789 5788 5786
5708 5711 5714 5717 5720 5724 5727 5732 5736 5736 5731 5726 5727 5732 5736 5739 5742 5744 5745 5745 5745 5746 5746 5748 5750 5752 5755 5760 5765 5770 5773 5776 5778 5780 5782 5783 5783 5785 5787 5789 5790 5792 5794 5795 5797 5798 5798 5798 5799 5799 5800 5800 5800 5800 5800 5800 5800 5800 5799 5799 5799 5799 5798 5798 5798 5798 5796 5795 5794 5793 5792 5791 5790 5788 5787 5786 5785 5784 5784 5783 5782 5781 5780 5778 5777
5702 5705 5708 5712 5715 5718 5722 5727 5732 5733 5727 5722 5721 5725 5729 5733 5736 5738 5739 5739 5740 5740 5739 5740 5741 5743 5748 5754 5760 5764 5767 5769 5772 5773 5774 5775 5776 5778 5780 5782 5783 5785 5787 5788 5790 5791 5791 5791 5791 5793 5793 5794 5793 5793 5793 5792 5793 5793 5792 5792 5791 5791 5791 5791 5791 5790 5789 5788 5787 5786 5785 5784 5783 5781 5780 5779 5778 5777 5776 5775 5774 5772 5770 5768 5767
5696 5699 5702 5706 5709 5712 5715 5719 5724 5726 5723 5719 5719 5721 5725 5728 5730 5732 5733 5734 5735 5736 5735 5735 5735 5738 5742 5748 5754 5758 5761 5763 5765 5766 5767 5769 5770 5772 5774 5775 5776 5778 5780 5782 5783 5785 5786 5785 5785 5786 5786 5786 5786 5786 5786 5786 5786 5785 5785 5785 5784 5784 5784 5784 5784 5783 5782 5781 5780 5779 5778 5777 5775 5774 5772 5771 5770 5768 5767 5766 5764 5762 5760 5758 5757